Time,TemperatureF,DewpointF,PressureIn,WindDirection,WindDirectionDegrees,WindSpeedMPH,WindSpeedGustMPH,Humidity,HourlyPrecipIn,Conditions,Clouds,dailyrainin,SoftwareType,DateUTC
2013-02-02 00:00:00,38.9,16.0,30.16,NNE,28,0.0,0.0,39,0.00,,,0.00,Wunderground v.1.15,2013-02-02 07:00:00,
2013-02-02 00:05:00,38.8,15.9,30.16,NNE,28,0.0,0.0,39,0.00,,,0.00,Wunderground v.1.15,2013-02-02 07:05:00,
2013-02-02 00:15:00,38.6,15.7,30.16,NNE,28,0.0,0.0,39,0.00,,,0.00,Wunderground v.1.15,2013-02-02 07:15:00,
2013-02-02 00:20:00,38.3,15.5,30.16,NNE,28,0.0,0.0,39,0.00,,,0.00,Wunderground v.1.15,2013-02-02 07:20:00,
2013-02-02 00:25:00,38.2,15.4,30.16,NNE,28,0.0,0.0,39,0.00,,,0.00,Wunderground v.1.15,2013-02-02 07:25:00,
2013-02-02 00:30:00,38.1,15.3,30.16,NNE,28,0.0,0.0,39,0.00,,,0.00,Wunderground v.1.15,2013-02-02 07:30:00,
2013-02-02 00:40:00,37.9,15.7,30.16,NNE,28,0.0,0.0,40,0.00,,,0.00,Wunderground v.1.15,2013-02-02 07:40:00,
2013-02-02 00:50:00,37.5,15.3,30.16,NNE,28,0.0,0.0,40,0.00,,,0.00,Wunderground v.1.15,2013-02-02 07:50:00,
2013-02-02 00:55:00,37.0,14.9,30.17,North,11,0.0,0.0,40,0.00,,,0.00,Wunderground v.1.15,2013-02-02 07:55:00,
2013-02-02 01:00:00,36.6,14.5,30.17,North,11,0.0,0.0,40,0.00,,,0.00,Wunderground v.1.15,2013-02-02 08:00:00,
2013-02-02 01:05:00,36.2,13.6,30.16,North,11,0.0,0.0,39,0.00,,,0.00,Wunderground v.1.15,2013-02-02 08:05:00,
2013-02-02 01:15:00,35.2,13.3,30.18,North,11,0.0,0.0,40,0.00,,,0.00,Wunderground v.1.15,2013-02-02 08:15:00,
2013-02-02 01:20:00,34.9,13.5,30.18,North,11,0.0,0.0,41,0.00,,,0.00,Wunderground v.1.15,2013-02-02 08:20:00,
2013-02-02 01:30:00,34.4,13.1,30.17,NNE,13,0.0,0.0,41,0.00,,,0.00,Wunderground v.1.15,2013-02-02 08:30:00,
2013-02-02 01:35:00,34.0,12.7,30.17,NNW,344,0.0,0.0,41,0.00,,,0.00,Wunderground v.1.15,2013-02-02 08:35:00,
2013-02-02 01:40:00,33.7,12.5,30.18,NNW,340,0.0,0.0,41,0.00,,,0.00,Wunderground v.1.15,2013-02-02 08:40:00,
2013-02-02 01:45:00,33.2,12.0,30.19,NNW,342,0.0,0.0,41,0.00,,,0.00,Wunderground v.1.15,2013-02-02 08:45:00,
2013-02-02 01:50:00,32.7,12.1,30.19,North,351,0.0,0.0,42,0.00,,,0.00,Wunderground v.1.15,2013-02-02 08:50:00,
2013-02-02 02:00:00,31.9,11.9,30.19,NW,324,0.0,0.0,43,0.00,,,0.00,Wunderground v.1.15,2013-02-02 09:00:00,
2013-02-02 02:05:00,31.6,11.6,30.18,NW,325,0.0,0.0,43,0.00,,,0.00,Wunderground v.1.15,2013-02-02 09:05:00,
2013-02-02 02:15:00,31.2,11.3,30.19,North,360,0.0,0.0,43,0.00,,,0.00,Wunderground v.1.15,2013-02-02 09:15:00,
2013-02-02 02:20:00,31.1,11.7,30.19,North,9,0.0,0.0,44,0.00,,,0.00,Wunderground v.1.15,2013-02-02 09:20:00,
2013-02-02 02:30:00,31.1,12.2,30.20,NNW,346,0.0,0.0,45,0.00,,,0.00,Wunderground v.1.15,2013-02-02 09:30:00,
2013-02-02 02:40:00,31.1,12.2,30.20,North,355,0.0,0.0,45,0.00,,,0.00,Wunderground v.1.15,2013-02-02 09:40:00,
2013-02-02 02:45:00,31.1,11.7,30.20,North,355,0.0,0.0,44,0.00,,,0.00,Wunderground v.1.15,2013-02-02 09:45:00,
2013-02-02 02:50:00,31.1,11.7,30.20,North,360,0.0,0.0,44,0.00,,,0.00,Wunderground v.1.15,2013-02-02 09:50:00,
2013-02-02 02:55:00,31.1,12.2,30.20,NNW,331,0.0,0.0,45,0.00,,,0.00,Wunderground v.1.15,2013-02-02 09:55:00,
2013-02-02 03:05:00,31.0,12.1,30.21,NW,314,0.0,0.0,45,0.00,,,0.00,Wunderground v.1.15,2013-02-02 10:05:00,
2013-02-02 03:15:00,30.7,11.8,30.21,North,355,0.0,0.0,45,0.00,,,0.00,Wunderground v.1.15,2013-02-02 10:15:00,
2013-02-02 03:20:00,30.6,11.7,30.22,NNW,339,0.0,0.0,45,0.00,,,0.00,Wunderground v.1.15,2013-02-02 10:20:00,
2013-02-02 03:25:00,30.4,11.6,30.22,North,360,0.0,0.0,45,0.00,,,0.00,Wunderground v.1.15,2013-02-02 10:25:00,
2013-02-02 03:30:00,30.3,11.5,30.22,North,355,0.0,0.0,45,0.00,,,0.00,Wunderground v.1.15,2013-02-02 10:30:00,
2013-02-02 03:35:00,30.3,11.5,30.22,North,351,0.0,0.0,45,0.00,,,0.00,Wunderground v.1.15,2013-02-02 10:35:00,
2013-02-02 03:40:00,30.5,12.2,30.22,NNE,14,0.0,0.0,46,0.00,,,0.00,Wunderground v.1.15,2013-02-02 10:40:00,
2013-02-02 03:50:00,30.9,13.5,30.22,NNW,346,0.0,0.0,48,0.00,,,0.00,Wunderground v.1.15,2013-02-02 10:50:00,
2013-02-02 03:55:00,31.1,12.2,30.22,NNE,13,0.0,0.0,45,0.00,,,0.00,Wunderground v.1.15,2013-02-02 10:55:00,
2013-02-02 04:00:00,31.3,12.4,30.22,NW,310,0.0,0.0,45,0.00,,,0.00,Wunderground v.1.15,2013-02-02 11:00:00,
2013-02-02 04:05:00,31.4,12.5,30.23,ENE,57,0.0,0.0,45,0.00,,,0.00,Wunderground v.1.15,2013-02-02 11:05:00,
2013-02-02 04:15:00,31.5,12.6,30.23,NNE,29,0.0,0.0,45,0.00,,,0.00,Wunderground v.1.15,2013-02-02 11:15:00,
2013-02-02 04:20:00,31.5,12.6,30.23,NW,319,0.0,0.0,45,0.00,,,0.00,Wunderground v.1.15,2013-02-02 11:20:00,
2013-02-02 04:25:00,31.7,12.8,30.23,NNW,336,0.0,0.0,45,0.00,,,0.00,Wunderground v.1.15,2013-02-02 11:25:00,
2013-02-02 04:30:00,32.0,13.0,30.23,NNW,340,0.0,0.0,45,0.00,,,0.00,Wunderground v.1.15,2013-02-02 11:30:00,
2013-02-02 04:35:00,32.2,13.2,30.24,North,360,0.0,0.0,45,0.00,,,0.00,Wunderground v.1.15,2013-02-02 11:35:00,
2013-02-02 04:45:00,32.6,13.6,30.23,NNE,14,0.0,0.0,45,0.00,,,0.00,Wunderground v.1.15,2013-02-02 11:45:00,
2013-02-02 04:55:00,32.4,12.9,30.23,NNW,327,0.0,0.0,44,0.00,,,0.00,Wunderground v.1.15,2013-02-02 11:55:00,
2013-02-02 05:00:00,32.2,12.7,30.24,NNW,333,0.0,0.0,44,0.00,,,0.00,Wunderground v.1.15,2013-02-02 12:00:00,
2013-02-02 05:05:00,32.0,13.0,30.26,NNE,21,0.0,0.0,45,0.00,,,0.00,Wunderground v.1.15,2013-02-02 12:05:00,
2013-02-02 05:15:00,31.6,12.7,30.27,NNE,28,0.0,0.0,45,0.00,,,0.00,Wunderground v.1.15,2013-02-02 12:15:00,
2013-02-02 05:20:00,31.5,13.1,30.26,NE,55,0.0,0.0,46,0.00,,,0.00,Wunderground v.1.15,2013-02-02 12:20:00,
2013-02-02 05:30:00,31.4,13.5,30.27,North,5,0.0,0.0,47,0.00,,,0.00,Wunderground v.1.15,2013-02-02 12:30:00,
2013-02-02 05:35:00,31.5,13.6,30.27,North,360,0.0,0.0,47,0.00,,,0.00,Wunderground v.1.15,2013-02-02 12:35:00,
2013-02-02 05:40:00,31.7,13.7,30.27,NNE,22,0.0,0.0,47,0.00,,,0.00,Wunderground v.1.15,2013-02-02 12:40:00,
2013-02-02 05:45:00,31.8,13.8,30.27,NNE,21,0.0,0.0,47,0.00,,,0.00,Wunderground v.1.15,2013-02-02 12:45:00,
2013-02-02 05:50:00,31.9,13.9,30.27,North,10,0.0,0.0,47,0.00,,,0.00,Wunderground v.1.15,2013-02-02 12:50:00,
2013-02-02 05:55:00,32.0,14.0,30.27,North,355,0.0,0.0,47,0.00,,,0.00,Wunderground v.1.15,2013-02-02 12:55:00,
2013-02-02 06:00:00,32.3,14.3,30.27,NNE,13,0.0,0.0,47,0.00,,,0.00,Wunderground v.1.15,2013-02-02 13:00:00,
2013-02-02 06:10:00,32.5,14.0,30.30,North,360,0.0,0.0,46,0.00,,,0.00,Wunderground v.1.15,2013-02-02 13:10:00,
2013-02-02 06:15:00,32.6,14.1,30.29,North,10,0.0,0.0,46,0.00,,,0.00,Wunderground v.1.15,2013-02-02 13:15:00,
2013-02-02 06:20:00,32.5,14.0,30.30,ENE,57,0.0,0.0,46,0.00,,,0.00,Wunderground v.1.15,2013-02-02 13:20:00,
2013-02-02 06:25:00,32.3,13.8,30.30,NE,49,0.0,0.0,46,0.00,,,0.00,Wunderground v.1.15,2013-02-02 13:25:00,
2013-02-02 06:30:00,32.0,13.5,30.30,NE,49,0.0,0.0,46,0.00,,,0.00,Wunderground v.1.15,2013-02-02 13:30:00,
2013-02-02 06:35:00,31.7,13.3,30.30,ENE,58,0.0,0.0,46,0.00,,,0.00,Wunderground v.1.15,2013-02-02 13:35:00,
2013-02-02 06:40:00,31.5,13.6,30.30,NE,51,0.0,0.0,47,0.00,,,0.00,Wunderground v.1.15,2013-02-02 13:40:00,
2013-02-02 06:45:00,31.4,13.5,30.31,NE,44,0.0,0.0,47,0.00,,,0.00,Wunderground v.1.15,2013-02-02 13:45:00,
2013-02-02 06:55:00,31.3,13.9,30.32,NE,36,0.0,0.0,48,0.00,,,0.00,Wunderground v.1.15,2013-02-02 13:55:00,
2013-02-02 07:00:00,31.3,13.9,30.32,SSE,165,0.0,0.0,48,0.00,,,0.00,Wunderground v.1.15,2013-02-02 14:00:00,
2013-02-02 07:05:00,31.3,13.9,30.35,NNW,331,0.0,0.0,48,0.00,,,0.00,Wunderground v.1.15,2013-02-02 14:05:00,
2013-02-02 07:15:00,31.2,13.8,30.35,ENE,69,0.0,0.0,48,0.00,,,0.00,Wunderground v.1.15,2013-02-02 14:15:00,
2013-02-02 07:20:00,31.1,13.7,30.35,North,5,0.0,0.0,48,0.00,,,0.00,Wunderground v.1.15,2013-02-02 14:20:00,
2013-02-02 07:30:00,31.1,14.1,30.36,NE,51,0.0,0.0,49,0.00,,,0.00,Wunderground v.1.15,2013-02-02 14:30:00,
2013-02-02 07:40:00,31.4,14.9,30.37,ENE,74,0.0,0.0,50,0.00,,,0.00,Wunderground v.1.15,2013-02-02 14:40:00,
2013-02-02 07:45:00,31.5,14.5,30.36,North,360,0.0,0.0,49,0.00,,,0.00,Wunderground v.1.15,2013-02-02 14:45:00,
2013-02-02 07:50:00,31.7,14.7,30.36,North,5,0.0,0.0,49,0.00,,,0.00,Wunderground v.1.15,2013-02-02 14:50:00,
2013-02-02 07:55:00,32.0,15.0,30.36,North,355,0.0,0.0,49,0.00,,,0.00,Wunderground v.1.15,2013-02-02 14:55:00,
2013-02-02 08:00:00,32.3,15.3,30.36,North,355,0.0,0.0,49,0.00,,,0.00,Wunderground v.1.15,2013-02-02 15:00:00,
2013-02-02 08:05:00,32.8,15.7,30.38,ENE,58,0.0,0.0,49,0.00,,,0.00,Wunderground v.1.15,2013-02-02 15:05:00,
2013-02-02 08:15:00,33.7,15.6,30.39,North,355,0.0,0.0,47,0.00,,,0.00,Wunderground v.1.15,2013-02-02 15:15:00,
2013-02-02 08:20:00,34.3,16.1,30.39,North,355,0.0,0.0,47,0.00,,,0.00,Wunderground v.1.15,2013-02-02 15:20:00,
2013-02-02 08:30:00,35.5,16.7,30.38,North,360,0.0,0.0,46,0.00,,,0.00,Wunderground v.1.15,2013-02-02 15:30:00,
2013-02-02 08:35:00,36.3,17.0,30.38,NW,304,0.0,0.0,45,0.00,,,0.00,Wunderground v.1.15,2013-02-02 15:35:00,
2013-02-02 08:40:00,37.0,17.1,30.37,NNE,21,0.0,0.0,44,0.00,,,0.00,Wunderground v.1.15,2013-02-02 15:40:00,
2013-02-02 08:45:00,37.8,17.8,30.37,North,355,0.0,0.0,44,0.00,,,0.00,Wunderground v.1.15,2013-02-02 15:45:00,
2013-02-02 08:50:00,38.6,18.0,30.36,NW,325,0.0,0.0,43,0.00,,,0.00,Wunderground v.1.15,2013-02-02 15:50:00,
2013-02-02 08:55:00,39.4,18.2,30.37,NNE,19,0.0,0.0,42,0.00,,,0.00,Wunderground v.1.15,2013-02-02 15:55:00,
2013-02-02 09:00:00,40.1,18.3,30.37,ENE,74,0.0,0.0,41,0.00,,,0.00,Wunderground v.1.15,2013-02-02 16:00:00,
2013-02-02 09:05:00,40.6,18.7,30.37,NE,38,0.0,0.0,41,0.00,,,0.00,Wunderground v.1.15,2013-02-02 16:05:00,
2013-02-02 09:15:00,41.5,18.9,30.37,NE,34,0.0,1.0,40,0.00,,,0.00,Wunderground v.1.15,2013-02-02 16:15:00,
2013-02-02 09:20:00,42.0,18.8,30.36,North,5,0.0,0.0,39,0.00,,,0.00,Wunderground v.1.15,2013-02-02 16:20:00,
2013-02-02 09:25:00,42.6,19.3,30.36,NNW,338,0.0,2.0,39,0.00,,,0.00,Wunderground v.1.15,2013-02-02 16:25:00,
2013-02-02 09:30:00,43.3,20.0,30.36,NNE,33,0.0,0.0,39,0.00,,,0.00,Wunderground v.1.15,2013-02-02 16:30:00,
2013-02-02 09:35:00,44.1,20.1,30.35,NNE,17,0.0,0.0,38,0.00,,,0.00,Wunderground v.1.15,2013-02-02 16:35:00,
2013-02-02 09:40:00,44.8,20.1,30.34,NNW,331,0.0,0.0,37,0.00,,,0.00,Wunderground v.1.15,2013-02-02 16:40:00,
2013-02-02 09:50:00,45.8,20.3,30.34,ENE,76,0.0,0.0,36,0.00,,,0.00,Wunderground v.1.15,2013-02-02 16:50:00,
2013-02-02 09:55:00,46.7,21.1,30.34,NW,306,0.0,0.0,36,0.00,,,0.00,Wunderground v.1.15,2013-02-02 16:55:00,
2013-02-02 10:05:00,47.8,21.4,30.35,NNE,24,0.0,0.0,35,0.00,,,0.00,Wunderground v.1.15,2013-02-02 17:05:00,
2013-02-02 10:15:00,48.8,21.6,30.34,NNW,345,0.0,0.0,34,0.00,,,0.00,Wunderground v.1.15,2013-02-02 17:15:00,
2013-02-02 10:20:00,49.8,22.5,30.34,NNW,340,0.0,0.0,34,0.00,,,0.00,Wunderground v.1.15,2013-02-02 17:20:00,
2013-02-02 10:25:00,50.8,22.7,30.33,NNE,13,0.0,0.0,33,0.00,,,0.00,Wunderground v.1.15,2013-02-02 17:25:00,
2013-02-02 10:30:00,51.8,22.8,30.32,North,360,0.0,0.0,32,0.00,,,0.00,Wunderground v.1.15,2013-02-02 17:30:00,
2013-02-02 10:40:00,53.6,22.9,30.31,North,9,0.0,2.0,30,0.00,,,0.00,Wunderground v.1.15,2013-02-02 17:40:00,
2013-02-02 10:45:00,54.4,22.8,30.31,North,355,0.0,2.0,29,0.00,,,0.00,Wunderground v.1.15,2013-02-02 17:45:00,
2013-02-02 10:50:00,55.2,22.6,30.32,NNW,344,0.0,0.0,28,0.00,,,0.00,Wunderground v.1.15,2013-02-02 17:50:00,
2013-02-02 10:55:00,55.8,23.1,30.31,North,355,0.0,0.0,28,0.00,,,0.00,Wunderground v.1.15,2013-02-02 17:55:00,
2013-02-02 11:00:00,56.6,23.8,30.30,NNW,341,0.0,0.0,28,0.00,,,0.00,Wunderground v.1.15,2013-02-02 18:00:00,
2013-02-02 11:05:00,57.3,23.6,30.30,NW,311,0.0,0.0,27,0.00,,,0.00,Wunderground v.1.15,2013-02-02 18:05:00,
2013-02-02 11:15:00,58.7,23.9,30.29,NNW,348,0.0,0.0,26,0.00,,,0.00,Wunderground v.1.15,2013-02-02 18:15:00,
2013-02-02 11:20:00,59.4,23.5,30.28,NNW,342,0.0,0.0,25,0.00,,,0.00,Wunderground v.1.15,2013-02-02 18:20:00,
2013-02-02 11:25:00,60.3,24.3,30.28,WNW,294,0.0,0.0,25,0.00,,,0.00,Wunderground v.1.15,2013-02-02 18:25:00,
2013-02-02 11:30:00,60.8,23.7,30.27,NNW,344,0.0,0.0,24,0.00,,,0.00,Wunderground v.1.15,2013-02-02 18:30:00,
2013-02-02 11:40:00,62.0,24.8,30.26,NNW,340,0.0,0.0,24,0.00,,,0.00,Wunderground v.1.15,2013-02-02 18:40:00,
2013-02-02 11:45:00,62.6,24.2,30.25,NNW,339,0.0,0.0,23,0.00,,,0.00,Wunderground v.1.15,2013-02-02 18:45:00,
2013-02-02 11:50:00,63.0,23.5,30.25,North,5,0.0,0.0,22,0.00,,,0.00,Wunderground v.1.15,2013-02-02 18:50:00,
2013-02-02 11:55:00,63.1,23.6,30.25,NNW,346,0.0,0.0,22,0.00,,,0.00,Wunderground v.1.15,2013-02-02 18:55:00,
2013-02-02 12:00:00,63.5,23.9,30.25,NNW,346,0.0,0.0,22,0.00,,,0.00,Wunderground v.1.15,2013-02-02 19:00:00,
2013-02-02 12:05:00,64.1,24.4,30.25,NNW,346,0.0,0.0,22,0.00,,,0.00,Wunderground v.1.15,2013-02-02 19:05:00,
2013-02-02 12:15:00,64.9,24.0,30.24,NNW,334,0.0,0.0,21,0.00,,,0.00,Wunderground v.1.15,2013-02-02 19:15:00,
2013-02-02 12:20:00,65.0,22.9,30.24,North,355,0.0,0.0,20,0.00,,,0.00,Wunderground v.1.15,2013-02-02 19:20:00,
2013-02-02 12:25:00,65.3,23.2,30.24,ENE,74,0.0,0.0,20,0.00,,,0.00,Wunderground v.1.15,2013-02-02 19:25:00,
2013-02-02 12:35:00,65.8,23.6,30.23,ENE,67,0.0,0.0,20,0.00,,,0.00,Wunderground v.1.15,2013-02-02 19:35:00,
2013-02-02 12:40:00,66.1,23.8,30.23,NNE,15,0.0,0.0,20,0.00,,,0.00,Wunderground v.1.15,2013-02-02 19:40:00,
2013-02-02 12:50:00,66.3,22.8,30.23,North,350,0.0,0.0,19,0.00,,,0.00,Wunderground v.1.15,2013-02-02 19:50:00,
2013-02-02 12:55:00,66.5,22.9,30.22,NW,320,0.0,2.0,19,0.00,,,0.00,Wunderground v.1.15,2013-02-02 19:55:00,
2013-02-02 13:00:00,66.7,23.1,30.21,NNW,330,0.0,0.0,19,0.00,,,0.00,Wunderground v.1.15,2013-02-02 20:00:00,
2013-02-02 13:05:00,67.2,22.2,30.24,NNW,330,0.0,0.0,18,0.00,,,0.00,Wunderground v.1.15,2013-02-02 20:05:00,
2013-02-02 13:15:00,67.5,22.5,30.22,ENE,71,0.0,0.0,18,0.00,,,0.00,Wunderground v.1.15,2013-02-02 20:15:00,
2013-02-02 13:20:00,67.0,22.1,30.23,East,80,0.0,0.0,18,0.00,,,0.00,Wunderground v.1.15,2013-02-02 20:20:00,
2013-02-02 13:25:00,67.1,22.1,30.23,East,80,0.0,0.0,18,0.00,,,0.00,Wunderground v.1.15,2013-02-02 20:25:00,
2013-02-02 13:30:00,67.0,22.1,30.23,SE,126,0.0,0.0,18,0.00,,,0.00,Wunderground v.1.15,2013-02-02 20:30:00,
2013-02-02 13:40:00,67.2,22.2,30.22,SE,126,0.0,0.0,18,0.00,,,0.00,Wunderground v.1.15,2013-02-02 20:40:00,
2013-02-02 13:45:00,67.6,22.5,30.21,East,88,0.0,0.0,18,0.00,,,0.00,Wunderground v.1.15,2013-02-02 20:45:00,
2013-02-02 13:55:00,68.2,21.7,30.21,East,84,0.0,0.0,17,0.00,,,0.00,Wunderground v.1.15,2013-02-02 20:55:00,
2013-02-02 14:00:00,68.5,21.9,30.20,East,83,0.0,0.0,17,0.00,,,0.00,Wunderground v.1.15,2013-02-02 21:00:00,
2013-02-02 14:05:00,68.8,22.2,30.20,East,83,0.0,0.0,17,0.00,,,0.00,Wunderground v.1.15,2013-02-02 21:05:00,
2013-02-02 14:15:00,68.8,20.7,30.20,NNW,344,0.0,0.0,16,0.00,,,0.00,Wunderground v.1.15,2013-02-02 21:15:00,
2013-02-02 14:20:00,68.9,20.8,30.19,WNW,295,0.0,0.0,16,0.00,,,0.00,Wunderground v.1.15,2013-02-02 21:20:00,
2013-02-02 14:25:00,68.8,20.7,30.19,NW,325,0.0,0.0,16,0.00,,,0.00,Wunderground v.1.15,2013-02-02 21:25:00,
2013-02-02 14:30:00,68.8,20.7,30.19,NW,325,0.0,0.0,16,0.00,,,0.00,Wunderground v.1.15,2013-02-02 21:30:00,
2013-02-02 14:35:00,68.8,20.7,30.19,NW,325,0.0,0.0,16,0.00,,,0.00,Wunderground v.1.15,2013-02-02 21:35:00,
2013-02-02 14:40:00,68.6,20.6,30.19,NW,325,0.0,0.0,16,0.00,,,0.00,Wunderground v.1.15,2013-02-02 21:40:00,
2013-02-02 14:50:00,69.1,22.4,30.19,ESE,116,0.0,0.0,17,0.00,,,0.00,Wunderground v.1.15,2013-02-02 21:50:00,
2013-02-02 14:55:00,69.1,22.4,30.19,ESE,116,0.0,0.0,17,0.00,,,0.00,Wunderground v.1.15,2013-02-02 21:55:00,
2013-02-02 15:05:00,69.2,22.5,30.18,WSW,238,1.0,4.0,17,0.00,,,0.00,Wunderground v.1.15,2013-02-02 22:05:00,
2013-02-02 15:15:00,68.7,22.1,30.19,SE,146,0.0,1.0,17,0.00,,,0.00,Wunderground v.1.15,2013-02-02 22:15:00,
2013-02-02 15:20:00,68.5,21.9,30.19,WSW,250,0.0,0.0,17,0.00,,,0.00,Wunderground v.1.15,2013-02-02 22:20:00,
2013-02-02 15:25:00,68.4,23.2,30.20,ESE,113,0.0,0.0,18,0.00,,,0.00,Wunderground v.1.15,2013-02-02 22:25:00,
2013-02-02 15:35:00,68.0,22.9,30.19,SSW,211,0.0,1.0,18,0.00,,,0.00,Wunderground v.1.15,2013-02-02 22:35:00,
2013-02-02 15:40:00,67.8,21.4,30.19,SSW,211,0.0,0.0,17,0.00,,,0.00,Wunderground v.1.15,2013-02-02 22:40:00,
2013-02-02 15:45:00,67.9,21.4,30.19,SSW,211,0.0,0.0,17,0.00,,,0.00,Wunderground v.1.15,2013-02-02 22:45:00,
2013-02-02 15:50:00,68.1,21.6,30.19,SSW,212,0.0,0.0,17,0.00,,,0.00,Wunderground v.1.15,2013-02-02 22:50:00,
2013-02-02 15:55:00,68.2,21.7,30.19,SSW,212,0.0,0.0,17,0.00,,,0.00,Wunderground v.1.15,2013-02-02 22:55:00,
2013-02-02 16:00:00,68.3,21.8,30.19,SW,232,0.0,0.0,17,0.00,,,0.00,Wunderground v.1.15,2013-02-02 23:00:00,
2013-02-02 16:05:00,67.9,21.4,30.18,West,272,0.0,0.0,17,0.00,,,0.00,Wunderground v.1.15,2013-02-02 23:05:00,
2013-02-02 16:15:00,67.4,21.0,30.19,SSW,213,0.0,0.0,17,0.00,,,0.00,Wunderground v.1.15,2013-02-02 23:15:00,
2013-02-02 16:20:00,66.9,22.0,30.20,SE,146,0.0,0.0,18,0.00,,,0.00,Wunderground v.1.15,2013-02-02 23:20:00,
2013-02-02 16:25:00,66.5,21.6,30.20,SE,134,0.0,0.0,18,0.00,,,0.00,Wunderground v.1.15,2013-02-02 23:25:00,
2013-02-02 16:30:00,66.3,21.5,30.20,South,191,0.0,0.0,18,0.00,,,0.00,Wunderground v.1.15,2013-02-02 23:30:00,
2013-02-02 16:35:00,66.1,21.3,30.20,SE,128,0.0,0.0,18,0.00,,,0.00,Wunderground v.1.15,2013-02-02 23:35:00,
2013-02-02 16:45:00,65.5,20.8,30.20,SE,128,0.0,0.0,18,0.00,,,0.00,Wunderground v.1.15,2013-02-02 23:45:00,
2013-02-02 16:50:00,65.4,20.7,30.21,SE,128,0.0,0.0,18,0.00,,,0.00,Wunderground v.1.15,2013-02-02 23:50:00,
2013-02-02 16:55:00,65.1,21.8,30.21,SE,128,0.0,0.0,19,0.00,,,0.00,Wunderground v.1.15,2013-02-02 23:55:00,
2013-02-02 17:00:00,64.8,21.5,30.20,SE,128,0.0,0.0,19,0.00,,,0.00,Wunderground v.1.15,2013-02-03 00:00:00,
2013-02-02 17:10:00,64.1,20.9,30.20,SE,128,0.0,0.0,19,0.00,,,0.00,Wunderground v.1.15,2013-02-03 00:10:00,
2013-02-02 17:20:00,63.2,20.2,30.22,SE,128,0.0,0.0,19,0.00,,,0.00,Wunderground v.1.15,2013-02-03 00:20:00,
2013-02-02 17:25:00,62.8,21.1,30.21,SE,128,0.0,0.0,20,0.00,,,0.00,Wunderground v.1.15,2013-02-03 00:25:00,
2013-02-02 17:30:00,62.5,20.8,30.22,SE,128,0.0,0.0,20,0.00,,,0.00,Wunderground v.1.15,2013-02-03 00:30:00,
2013-02-02 17:35:00,62.2,20.6,30.22,SE,128,0.0,0.0,20,0.00,,,0.00,Wunderground v.1.15,2013-02-03 00:35:00,
2013-02-02 17:40:00,61.8,20.3,30.22,SE,128,0.0,0.0,20,0.00,,,0.00,Wunderground v.1.15,2013-02-03 00:40:00,
2013-02-02 17:45:00,61.3,21.0,30.22,SE,128,0.0,0.0,21,0.00,,,0.00,Wunderground v.1.15,2013-02-03 00:45:00,
2013-02-02 17:50:00,60.7,21.6,30.22,SE,128,0.0,0.0,22,0.00,,,0.00,Wunderground v.1.15,2013-02-03 00:50:00,
2013-02-02 17:55:00,59.9,20.9,30.23,SE,128,0.0,0.0,22,0.00,,,0.00,Wunderground v.1.15,2013-02-03 00:55:00,
2013-02-02 18:00:00,59.0,20.2,30.24,SE,128,0.0,0.0,22,0.00,,,0.00,Wunderground v.1.15,2013-02-03 01:00:00,
2013-02-02 18:05:00,58.5,19.7,30.24,SE,128,0.0,0.0,22,0.00,,,0.00,Wunderground v.1.15,2013-02-03 01:05:00,
2013-02-02 18:15:00,57.7,19.1,30.25,SE,128,0.0,0.0,22,0.00,,,0.00,Wunderground v.1.15,2013-02-03 01:15:00,
2013-02-02 18:20:00,57.4,18.8,30.25,SE,128,0.0,0.0,22,0.00,,,0.00,Wunderground v.1.15,2013-02-03 01:20:00,
2013-02-02 18:30:00,56.7,18.2,30.26,SE,128,0.0,0.0,22,0.00,,,0.00,Wunderground v.1.15,2013-02-03 01:30:00,
2013-02-02 18:35:00,56.4,18.0,30.27,SE,128,0.0,0.0,22,0.00,,,0.00,Wunderground v.1.15,2013-02-03 01:35:00,
2013-02-02 18:40:00,56.0,17.6,30.27,SE,128,0.0,0.0,22,0.00,,,0.00,Wunderground v.1.15,2013-02-03 01:40:00,
2013-02-02 18:45:00,55.7,18.4,30.27,SE,128,0.0,0.0,23,0.00,,,0.00,Wunderground v.1.15,2013-02-03 01:45:00,
2013-02-02 18:50:00,55.3,18.1,30.27,SE,128,0.0,0.0,23,0.00,,,0.00,Wunderground v.1.15,2013-02-03 01:50:00,
2013-02-02 19:00:00,54.3,17.2,30.29,SE,128,0.0,0.0,23,0.00,,,0.00,Wunderground v.1.15,2013-02-03 02:00:00,
2013-02-02 19:05:00,53.0,16.1,30.29,SE,128,0.0,0.0,23,0.00,,,0.00,Wunderground v.1.15,2013-02-03 02:05:00,
2013-02-02 19:15:00,52.0,16.3,30.29,SE,128,0.0,0.0,24,0.00,,,0.00,Wunderground v.1.15,2013-02-03 02:15:00,
2013-02-02 19:20:00,51.7,16.0,30.29,SE,128,0.0,0.0,24,0.00,,,0.00,Wunderground v.1.15,2013-02-03 02:20:00,
2013-02-02 19:25:00,51.5,16.8,30.29,SE,128,0.0,0.0,25,0.00,,,0.00,Wunderground v.1.15,2013-02-03 02:25:00,
2013-02-02 19:35:00,51.0,16.4,30.30,SE,128,0.0,0.0,25,0.00,,,0.00,Wunderground v.1.15,2013-02-03 02:35:00,
2013-02-02 19:40:00,50.7,16.1,30.30,SE,128,0.0,0.0,25,0.00,,,0.00,Wunderground v.1.15,2013-02-03 02:40:00,
2013-02-02 19:45:00,50.3,15.8,30.30,SE,128,0.0,0.0,25,0.00,,,0.00,Wunderground v.1.15,2013-02-03 02:45:00,
2013-02-02 19:50:00,50.0,16.4,30.30,SE,128,0.0,0.0,26,0.00,,,0.00,Wunderground v.1.15,2013-02-03 02:50:00,
2013-02-02 19:55:00,49.8,16.2,30.30,SE,128,0.0,0.0,26,0.00,,,0.00,Wunderground v.1.15,2013-02-03 02:55:00,
2013-02-02 20:05:00,49.4,15.9,30.27,SE,128,0.0,0.0,26,0.00,,,0.00,Wunderground v.1.15,2013-02-03 03:05:00,
2013-02-02 20:15:00,48.9,16.3,30.27,SE,128,0.0,0.0,27,0.00,,,0.00,Wunderground v.1.15,2013-02-03 03:15:00,
2013-02-02 20:20:00,48.6,16.1,30.27,SE,128,0.0,0.0,27,0.00,,,0.00,Wunderground v.1.15,2013-02-03 03:20:00,
2013-02-02 20:30:00,48.1,15.6,30.27,SE,128,0.0,0.0,27,0.00,,,0.00,Wunderground v.1.15,2013-02-03 03:30:00,
2013-02-02 20:40:00,47.7,15.3,30.27,SE,128,0.0,0.0,27,0.00,,,0.00,Wunderground v.1.15,2013-02-03 03:40:00,
2013-02-02 20:45:00,47.5,16.0,30.28,SE,128,0.0,0.0,28,0.00,,,0.00,Wunderground v.1.15,2013-02-03 03:45:00,
2013-02-02 20:50:00,47.2,15.7,30.28,SE,128,0.0,0.0,28,0.00,,,0.00,Wunderground v.1.15,2013-02-03 03:50:00,
2013-02-02 20:55:00,47.0,15.5,30.28,SE,128,0.0,0.0,28,0.00,,,0.00,Wunderground v.1.15,2013-02-03 03:55:00,
2013-02-02 21:00:00,46.8,15.4,30.29,SE,128,0.0,0.0,28,0.00,,,0.00,Wunderground v.1.15,2013-02-03 04:00:00,
2013-02-02 21:05:00,46.5,15.1,30.25,SE,128,0.0,0.0,28,0.00,,,0.00,Wunderground v.1.15,2013-02-03 04:05:00,
2013-02-02 21:15:00,45.9,15.4,30.26,SE,128,0.0,0.0,29,0.00,,,0.00,Wunderground v.1.15,2013-02-03 04:15:00,
2013-02-02 21:20:00,45.7,15.2,30.26,SE,128,0.0,0.0,29,0.00,,,0.00,Wunderground v.1.15,2013-02-03 04:20:00,
2013-02-02 21:25:00,45.4,14.9,30.26,SE,128,0.0,0.0,29,0.00,,,0.00,Wunderground v.1.15,2013-02-03 04:25:00,
2013-02-02 21:35:00,44.9,14.5,30.26,SE,128,0.0,0.0,29,0.00,,,0.00,Wunderground v.1.15,2013-02-03 04:35:00,
2013-02-02 21:40:00,44.7,14.3,30.26,SE,128,0.0,0.0,29,0.00,,,0.00,Wunderground v.1.15,2013-02-03 04:40:00,
2013-02-02 21:50:00,44.3,14.8,30.26,SE,128,0.0,0.0,30,0.00,,,0.00,Wunderground v.1.15,2013-02-03 04:50:00,
2013-02-02 21:55:00,43.8,14.3,30.27,SE,128,0.0,0.0,30,0.00,,,0.00,Wunderground v.1.15,2013-02-03 04:55:00,
2013-02-02 22:00:00,43.4,14.0,30.27,SE,128,0.0,0.0,30,0.00,,,0.00,Wunderground v.1.15,2013-02-03 05:00:00,
2013-02-02 22:05:00,43.1,13.7,30.22,SE,128,0.0,0.0,30,0.00,,,0.00,Wunderground v.1.15,2013-02-03 05:05:00,
2013-02-02 22:15:00,42.3,13.0,30.23,ESE,123,0.0,0.0,30,0.00,,,0.00,Wunderground v.1.15,2013-02-03 05:15:00,
2013-02-02 22:20:00,41.9,12.7,30.23,SE,124,0.0,0.0,30,0.00,,,0.00,Wunderground v.1.15,2013-02-03 05:20:00,
2013-02-02 22:25:00,41.6,12.4,30.23,ESE,123,0.0,0.0,30,0.00,,,0.00,Wunderground v.1.15,2013-02-03 05:25:00,
2013-02-02 22:30:00,41.3,12.1,30.23,SE,124,0.0,0.0,30,0.00,,,0.00,Wunderground v.1.15,2013-02-03 05:30:00,
2013-02-02 22:35:00,41.1,12.0,30.23,ESE,123,0.0,0.0,30,0.00,,,0.00,Wunderground v.1.15,2013-02-03 05:35:00,
2013-02-02 22:45:00,40.7,12.4,30.23,SE,124,0.0,0.0,31,0.00,,,0.00,Wunderground v.1.15,2013-02-03 05:45:00,
2013-02-02 22:55:00,40.4,12.1,30.23,SE,124,0.0,0.0,31,0.00,,,0.00,Wunderground v.1.15,2013-02-03 05:55:00,
2013-02-02 23:00:00,40.4,12.1,30.24,SE,124,0.0,0.0,31,0.00,,,0.00,Wunderground v.1.15,2013-02-03 06:00:00,
2013-02-02 23:05:00,40.2,11.9,30.20,SE,124,0.0,0.0,31,0.00,,,0.00,Wunderground v.1.15,2013-02-03 06:05:00,
2013-02-02 23:15:00,39.9,12.4,30.20,ESE,123,0.0,0.0,32,0.00,,,0.00,Wunderground v.1.15,2013-02-03 06:15:00,
2013-02-02 23:20:00,39.7,12.2,30.20,ESE,123,0.0,0.0,32,0.00,,,0.00,Wunderground v.1.15,2013-02-03 06:20:00,
2013-02-02 23:30:00,39.5,12.7,30.20,ESE,122,0.0,0.0,33,0.00,,,0.00,Wunderground v.1.15,2013-02-03 06:30:00,
2013-02-02 23:40:00,39.4,12.6,30.21,ESE,123,0.0,0.0,33,0.00,,,0.00,Wunderground v.1.15,2013-02-03 06:40:00,
2013-02-02 23:45:00,39.3,12.6,30.20,ESE,123,0.0,0.0,33,0.00,,,0.00,Wunderground v.1.15,2013-02-03 06:45:00,
2013-02-02 23:50:00,39.3,12.6,30.20,ESE,122,0.0,0.0,33,0.00,,,0.00,Wunderground v.1.15,2013-02-03 06:50:00,
2013-02-02 23:55:00,39.2,12.5,30.20,ESE,123,0.0,0.0,33,0.00,,,0.00,Wunderground v.1.15,2013-02-03 06:55:00,